[[{"header":{"parameterUnit":"m.s-1","parameterCategory":1,"la1":30.2991,"la2":30.254,"lo1":-89.0895,"lo2":-89.0444,"dy":0.0017,"dx":0.0017,"nx":28,"ny":28,"refTime":"2025-02-07T09:00:00:Z","depth":0,"parameterNumber":2,"parameterNumberName":"U-component_of_WINDS"},"data":[0,0,0,0,0,0,0,0,0,0,0,0,0,0,0,0,0,0,0,0,0,0,0,0,0,0,0,0,0,0,0,0,0,0,0,0,0,0,0,0,0,0,0,0,0,0,0,0,0,0,0,0,0,0,0,0,0,0,-0.5551,-0.555,0,-0.5487,-0.5486,-0.5485,-0.5442,-0.5442,-0.5441,-0.5441,-0.5376,-0.5374,-0.5373,0,0,0,0,0,0,0,0,0,0,0,0,0,-0.5636,-0.5634,-0.5551,-0.555,-0.5549,-0.5487,-0.5486,-0.5485,-0.5442,-0.5442,-0.5441,-0.5441,-0.5376,-0.5375,-0.5373,0,0,0,0,0,0,0,0,0,0,0,0,0,-0.5588,-0.5634,-0.5551,-0.552,-0.5517,-0.5487,-0.5486,-0.5485,-0.5442,-0.5442,-0.5441,-0.5441,-0.5377,-0.5375,-0.5373,-0.5369,0,0,-0.5366,-0.5365,0,0,0,0,0,0,0,0,-0.5591,-0.5585,-0.5525,-0.5522,-0.5518,-0.5472,-0.5492,-0.5446,-0.5442,-0.547,-0.5441,-0.544,-0.5408,-0.5403,-0.5393,-0.5366,-0.5363,-0.5366,-0.5365,-0.5364,-0.5363,0,0,0,0,0,0,0,-0.5594,-0.5587,-0.5525,-0.5524,-0.552,-0.551,-0.5502,-0.5483,-0.5443,-0.5468,-0.5465,-0.5458,-0.5406,-0.5395,-0.5391,-0.5362,-0.5366,-0.5364,-0.5363,-0.5362,-0.533,-0.533,0,0,0,0,0,0,-0.5602,-0.5591,-0.5527,-0.5523,-0.5554,-0.5508,-0.55,-0.5487,-0.5443,-0.5436,-0.5458,-0.5456,-0.5399,-0.5393,-0.5388,-0.5381,-0.5364,-0.5362,-0.536,-0.5329,-0.533,-0.533,0,0,0,0,0,0,-0.5604,-0.5597,-0.553,-0.5556,-0.5547,-0.5508,-0.5493,-0.5486,-0.5475,-0.5435,-0.5428,-0.5454,-0.5398,-0.5391,-0.5374,-0.5378,-0.5361,-0.5359,-0.5329,-0.5329,-0.533,-0.5366,0,0,0,0,0,0,-0.5607,-0.5598,-0.5596,-0.5556,-0.5546,-0.5517,-0.5493,-0.5485,-0.5471,-0.5468,-0.5429,-0.5423,-0.5397,-0.5378,-0.5372,-0.5375,-0.5357,-0.5328,-0.5329,-0.533,-0.5364,-0.5368,-0.5371,0,0,0,0,0,-0.561,-0.5609,-0.5596,-0.5589,-0.5542,-0.5517,-0.5511,-0.5482,-0.5472,-0.5469,-0.5444,-0.5424,-0.5379,-0.5376,-0.537,-0.5372,-0.5328,-0.5329,-0.533,-0.5363,-0.5367,-0.5371,0,0,0,0,0,0,-0.5649,-0.5603,-0.5588,-0.5574,-0.555,-0.551,-0.5506,-0.5487,-0.5465,-0.5463,-0.5428,-0.5419,-0.5406,-0.5387,-0.5385,-0.5366,-0.5351,-0.535,-0.5378,-0.5382,-0.5385,-0.5389,-0.5355,0,0,0,0,0,-0.5656,-0.564,-0.56,-0.5591,-0.558,-0.5545,-0.5533,-0.5513,-0.5486,-0.5476,-0.545,-0.5425,-0.5405,-0.5393,-0.5372,-0.5362,-0.5353,-0.536,-0.5363,-0.5366,-0.5366,-0.5359,-0.5361,-0.5333,-0.5333,-0.5333,0,0,-0.5671,-0.5643,-0.5635,-0.5599,-0.5577,-0.5561,-0.5537,-0.5521,-0.5508,-0.5474,-0.5455,-0.5436,-0.5406,-0.5392,-0.5384,-0.5376,-0.5372,-0.5367,-0.537,-0.5368,-0.536,-0.5363,-0.5365,-0.5334,-0.5334,-0.5334,0,0,-0.5688,-0.5666,-0.5656,-0.5635,-0.5604,-0.5581,-0.5579,-0.5542,-0.5527,-0.5509,-0.5482,-0.5467,-0.5434,-0.5414,-0.5399,-0.541,-0.5391,-0.5405,-0.5421,-0.5415,-0.5417,-0.5419,-0.5422,-0.5424,-0.5405,-0.5405,-0.5405,0,-0.571,-0.5684,-0.5653,-0.5638,-0.5623,-0.5592,-0.5582,-0.5563,-0.5527,-0.5517,-0.5509,-0.5466,-0.5444,-0.5425,-0.5428,-0.5417,-0.5413,-0.5408,-0.5419,-0.5421,-0.5422,-0.5424,-0.5426,-0.5407,-0.5407,-0.5407,-0.5406,0,-0.5712,-0.5694,-0.569,-0.5656,-0.564,-0.5628,-0.5596,-0.5584,-0.5566,-0.5544,-0.5526,-0.5498,-0.5472,-0.5466,-0.5448,-0.5444,-0.544,-0.5426,-0.541,-0.5427,-0.5429,-0.543,-0.541,-0.5409,-0.5408,-0.5408,0,0,-0.575,-0.57,-0.5699,-0.5683,-0.5647,-0.5633,-0.5619,-0.5593,-0.5584,-0.556,-0.5548,-0.5521,-0.5508,-0.5492,-0.5471,-0.5465,-0.5475,-0.5452,-0.545,-0.5456,-0.547,-0.548,-0.5481,-0.5463,-0.5463,-0.5463,-0.5472,0,-0.5762,-0.5735,-0.5708,-0.5692,-0.5675,-0.5646,-0.5634,-0.5611,-0.559,-0.5574,-0.5551,-0.5532,-0.5517,-0.5507,-0.55,-0.5476,-0.5477,-0.5475,-0.5451,-0.545,-0.5458,-0.5482,-0.5493,-0.5502,-0.5472,-0.5473,-0.5473,0,-0.5771,-0.5748,-0.573,-0.5696,-0.5688,-0.5678,-0.5652,-0.5637,-0.561,-0.5595,-0.5578,-0.5556,-0.554,-0.5528,-0.5506,-0.5505,-0.5494,-0.548,-0.548,-0.5475,-0.5461,-0.5478,-0.5505,-0.5506,-0.5474,-0.5474,-0.5474,0,-0.58,-0.5766,-0.575,-0.5738,-0.5697,-0.5691,-0.5674,-0.5646,-0.5632,-0.561,-0.5601,-0.5578,-0.5565,-0.5547,-0.552,-0.5513,-0.5501,-0.5486,-0.5488,-0.5489,-0.5485,-0.5486,-0.551,-0.5481,-0.5481,-0.5481,-0.5481,0,-0.5814,-0.5804,-0.5763,-0.5753,-0.5741,-0.5711,-0.57,-0.568,-0.5656,-0.5642,-0.5616,-0.5604,-0.5569,-0.5552,-0.5531,-0.5516,-0.5511,-0.5498,-0.5493,-0.55,-0.5501,-0.5491,-0.5489,-0.5481,-0.5481,-0.5481,-0.5481,0,-0.5844,-0.5816,-0.5797,-0.5761,-0.5751,-0.5744,-0.5713,-0.5703,-0.5681,-0.5664,-0.5659,-0.5625,-0.5605,-0.5576,-0.5547,-0.5532,-0.552,-0.5512,-0.5529,-0.5525,-0.5529,-0.5529,-0.5546,-0.5547,-0.5518,-0.5519,-0.5519,0,-0.5855,-0.5846,-0.5809,-0.5798,-0.5781,-0.5764,-0.575,-0.572,-0.5706,-0.5676,-0.5669,-0.5647,-0.5627,-0.5596,-0.5569,-0.5546,-0.5536,-0.5544,-0.5533,-0.554,-0.5535,-0.5536,-0.5534,-0.5546,-0.5547,-0.5547,-0.5548,0,-0.5876,-0.5863,-0.5844,-0.582,-0.5804,-0.5783,-0.5762,-0.5755,-0.572,-0.5706,-0.5685,-0.567,-0.564,-0.5618,-0.5592,-0.5575,-0.5555,-0.5552,-0.5551,-0.5558,-0.5568,-0.5561,-0.5535,-0.5551,-0.5551,-0.555,-0.555,-0.555,-0.5896,-0.5887,-0.5859,-0.5839,-0.582,-0.58,-0.5789,-0.5766,-0.5748,-0.5721,-0.5705,-0.5685,-0.5658,-0.5622,-0.5605,-0.5589,-0.5581,-0.558,-0.5579,-0.5579,-0.5581,-0.5572,-0.5584,-0.5584,-0.5584,-0.5584,-0.5584,0,-0.5915,-0.5896,-0.5878,-0.5848,-0.5833,-0.5816,-0.5792,-0.578,-0.5762,-0.5739,-0.5721,-0.5696,-0.5675,-0.5647,-0.5623,-0.5616,-0.5606,-0.561,-0.561,-0.5606,-0.559,-0.5593,-0.5618,-0.5618,-0.5618,-0.5618,-0.5618,-0.5618,-0.5923,-0.5907,-0.5891,-0.5865,-0.5846,-0.5826,-0.5813,-0.5795,-0.5777,-0.5751,-0.5733,-0.5715,-0.569,-0.5665,-0.5645,-0.5637,-0.5629,-0.5636,-0.5625,-0.5611,-0.5607,-0.5604,-0.5606,-0.5635,-0.5635,-0.5642,-0.5643,-0.5643]},{"header":{"parameterUnit":"m.s-1","parameterCategory":1,"la1":30.2991,"la2":30.254,"lo1":-89.0895,"lo2":-89.0444,"dy":0.0017,"dx":0.0017,"nx":28,"ny":28,"refTime":"2025-02-07T09:00:00:Z","depth":0,"parameterNumber":3,"parameterNumberName":"V-component_of_WINDS"},"data":[0,0,0,0,0,0,0,0,0,0,0,0,0,0,0,0,0,0,0,0,0,0,0,0,0,0,0,0,0,0,0,0,0,0,0,0,0,0,0,0,0,0,0,0,0,0,0,0,0,0,0,0,0,0,0,0,0,0,3.0434,3.0434,0,3.0423,3.0423,3.0422,3.0408,3.0408,3.0408,3.0408,3.0394,3.0394,3.0394,0,0,0,0,0,0,0,0,0,0,0,0,0,3.0443,3.0443,3.0434,3.0434,3.0434,3.0423,3.0423,3.0422,3.0409,3.0408,3.0408,3.0408,3.0394,3.0394,3.0394,0,0,0,0,0,0,0,0,0,0,0,0,0,3.0436,3.0443,3.0434,3.0426,3.0425,3.0423,3.0423,3.0422,3.0409,3.0408,3.0408,3.0408,3.0394,3.0394,3.0394,3.0398,0,0,3.0393,3.0393,0,0,0,0,0,0,0,0,3.0437,3.0436,3.0427,3.0426,3.0425,3.0417,3.0421,3.0414,3.0409,3.0415,3.0408,3.0408,3.0402,3.0401,3.0399,3.0398,3.0397,3.0393,3.0393,3.0393,3.0393,0,0,0,0,0,0,0,3.0437,3.0436,3.043,3.0427,3.0426,3.0422,3.0421,3.0419,3.041,3.0414,3.0413,3.0412,3.0401,3.04,3.0399,3.0397,3.0393,3.0393,3.0392,3.0392,3.0401,3.0402,0,0,0,0,0,0,3.0439,3.0437,3.043,3.0429,3.043,3.0422,3.0421,3.042,3.041,3.0408,3.0412,3.0411,3.04,3.0399,3.0398,3.0405,3.0393,3.0392,3.0392,3.0401,3.0401,3.0402,0,0,0,0,0,0,3.044,3.0439,3.043,3.0433,3.0432,3.0423,3.0421,3.042,3.0418,3.0409,3.0407,3.0413,3.04,3.0399,3.0399,3.0404,3.0392,3.0392,3.04,3.0401,3.0401,3.0417,0,0,0,0,0,0,3.044,3.0439,3.0441,3.0433,3.0431,3.0431,3.0422,3.042,3.0418,3.0417,3.0408,3.0407,3.04,3.04,3.0399,3.0404,3.0392,3.04,3.0401,3.0401,3.0416,3.0418,3.042,0,0,0,0,0,3.044,3.0444,3.0441,3.044,3.0433,3.0432,3.0431,3.0423,3.0418,3.042,3.0415,3.0407,3.0404,3.04,3.0399,3.0404,3.0399,3.04,3.0401,3.0415,3.0418,3.042,0,0,0,0,0,0,3.0451,3.0443,3.0439,3.0441,3.0437,3.0429,3.0431,3.0426,3.0423,3.0422,3.0412,3.041,3.0412,3.0408,3.0403,3.0409,3.0401,3.0401,3.0412,3.0414,3.0416,3.0417,3.0392,0,0,0,0,0,3.0454,3.0454,3.0447,3.0449,3.0448,3.044,3.0439,3.0434,3.0429,3.0427,3.0421,3.0417,3.0415,3.0414,3.0412,3.0415,3.0414,3.0418,3.042,3.0422,3.0423,3.0426,3.0429,3.0405,3.0405,3.0405,0,0,3.0459,3.0455,3.0455,3.0451,3.0448,3.0448,3.0439,3.0438,3.0439,3.0427,3.0428,3.0424,3.0418,3.0421,3.0422,3.0417,3.0429,3.0423,3.0424,3.0424,3.0428,3.043,3.0432,3.0405,3.0405,3.0405,0,0,3.047,3.0466,3.0469,3.0466,3.0462,3.0457,3.0458,3.0452,3.0449,3.045,3.0442,3.0441,3.0438,3.0435,3.0433,3.0446,3.0439,3.0445,3.0455,3.0459,3.0461,3.0462,3.0468,3.047,3.0446,3.0446,3.0446,0,3.0477,3.0477,3.047,3.0472,3.0471,3.0462,3.0465,3.0463,3.0457,3.0457,3.0452,3.045,3.0445,3.0448,3.0452,3.045,3.0451,3.0446,3.0461,3.0463,3.0464,3.047,3.0472,3.0447,3.0447,3.0447,3.0446,0,3.0487,3.0488,3.049,3.0488,3.0487,3.0489,3.0483,3.0483,3.0478,3.0474,3.0476,3.0471,3.0468,3.0469,3.0463,3.0471,3.0469,3.0463,3.0455,3.0467,3.0473,3.0475,3.0448,3.0448,3.0447,3.0447,0,0,3.0502,3.0498,3.0499,3.0499,3.0494,3.0495,3.0497,3.0496,3.0497,3.0494,3.0497,3.0495,3.049,3.0488,3.0483,3.0486,3.0498,3.048,3.0479,3.0485,3.0509,3.0515,3.0517,3.0494,3.0494,3.0495,3.051,0,3.0513,3.0517,3.0512,3.0518,3.0519,3.0512,3.0514,3.0512,3.0509,3.051,3.0506,3.0506,3.0498,3.0498,3.05,3.0496,3.0503,3.0495,3.0497,3.0497,3.05,3.052,3.0525,3.054,3.0512,3.0513,3.0513,0,3.0524,3.0525,3.0531,3.0529,3.0529,3.0532,3.0532,3.0532,3.053,3.0528,3.0527,3.0521,3.0524,3.0516,3.0521,3.0515,3.0516,3.0514,3.0515,3.0515,3.0506,3.0522,3.0544,3.0547,3.0515,3.0515,3.0515,0,3.0537,3.0538,3.0543,3.0543,3.054,3.0542,3.0541,3.0539,3.0539,3.0539,3.054,3.0539,3.0539,3.0539,3.0534,3.0529,3.054,3.0531,3.0539,3.0539,3.0542,3.0542,3.0566,3.054,3.054,3.054,3.054,0,3.0549,3.0553,3.0549,3.0552,3.0557,3.0552,3.0557,3.0555,3.0554,3.0557,3.055,3.0552,3.0545,3.0547,3.0543,3.0548,3.0548,3.0547,3.0546,3.0548,3.0548,3.0548,3.0548,3.0541,3.0541,3.0541,3.0541,0,3.0563,3.056,3.0565,3.0563,3.0563,3.0567,3.0566,3.0568,3.0566,3.057,3.057,3.0566,3.0568,3.0563,3.0564,3.0562,3.057,3.0567,3.0571,3.0571,3.0579,3.0579,3.0605,3.0609,3.058,3.058,3.0581,0,3.0571,3.0575,3.0575,3.0577,3.0577,3.0579,3.0581,3.0576,3.0578,3.0578,3.0581,3.0583,3.0585,3.0589,3.0586,3.0588,3.0585,3.0594,3.0585,3.0588,3.0587,3.0587,3.0589,3.0596,3.0596,3.0597,3.0597,0,3.0587,3.0586,3.0588,3.0591,3.0594,3.0595,3.0596,3.0598,3.0594,3.0596,3.0599,3.0601,3.0604,3.0606,3.0608,3.0607,3.0602,3.06,3.0602,3.0605,3.0608,3.0608,3.0577,3.0599,3.0599,3.0599,3.0599,3.0599,3.0599,3.0603,3.0604,3.0608,3.0609,3.0611,3.0614,3.0613,3.0616,3.0619,3.0616,3.0621,3.0621,3.0623,3.0623,3.0626,3.0622,3.0625,3.0626,3.0627,3.0629,3.0607,3.0626,3.0626,3.0626,3.0626,3.0626,0,3.0615,3.0616,3.062,3.0623,3.0627,3.0623,3.0625,3.0628,3.0632,3.0634,3.0636,3.0641,3.0645,3.0643,3.0646,3.065,3.0648,3.0651,3.0651,3.0651,3.0632,3.063,3.0653,3.0653,3.0653,3.0653,3.0653,3.0653,3.0624,3.0631,3.0631,3.0639,3.064,3.0646,3.0648,3.065,3.0651,3.0658,3.0661,3.0661,3.0661,3.0665,3.0669,3.0668,3.067,3.0675,3.0673,3.0655,3.0652,3.065,3.0649,3.0675,3.0675,3.0693,3.0693,3.0693]}]]